This demonstration page uses our WeatherBlox Daily Observations layout. Learn more.

Left ArrowRight Arrow

41.12389, -100.76542

Hourly Observations for December 23, 2016

Temp ( °F °C ) Dew Point ( °F °C ) Humidity (%) Winds ( mph kmh ) Pressure ( in mb ) Visibility ( mi km ) Precip ( " mm )
12:24 am 00:24 Cloudy 33 0.6 28 -2.2 82 82 SSE 16 26 30.06 1018 10 16 0.00 0.00
12:53 am 00:53 Mostly Clear 33 0.6 27 -2.8 78 78 S 16 26 29.99 1016 10 16 0.00 0.00
1:53 am 01:53 Partly Cloudy 33 0.6 26 -3.3 75 75 S 16 26 29.94 1014 10 16 0.00 0.00
2:53 am 02:53 Clear 32 0 24 -4.4 73 73 S 20 31 29.90 1012 10 16 0.00 0.00
3:36 am 03:36 Mostly Cloudy 32 0 25 -4 75 75 SSE 10 17 29.94 1014 10 16 0.00 0.00
3:53 am 03:53 Cloudy 32 0 25 -3.9 75 75 SSE 8 13 29.87 1012 10 16 0.00 0.00
4:53 am 04:53 Cloudy 32 0 25 -3.9 75 75 S 10 17 29.85 1011 10 16 0.00 0.00
5:12 am 05:12 Cloudy 32 0 27 -3 80 80 S 8 13 29.91 1013 10 16 0.00 0.00
5:53 am 05:53 Cloudy 32 0 26 -3.3 79 79 SSW 8 13 29.83 1010 10 16 0.00 0.00
6:31 am 06:31 Cloudy 32 0 27 -2.8 82 82 S 8 13 29.88 1012 10 16 0.00 0.00
6:53 am 06:53 Cloudy 32 0 27 -2.8 82 82 S 9 15 29.81 1010 10 16 0.00 0.00
7:53 am 07:53 Cloudy 32 0 28 -2.2 85 85 S 6 9 29.81 1010 10 16 0.00 0.00
8:53 am 08:53 Cloudy 32 0 29 -1.7 88 88 SSW 7 11 29.81 1010 10 16 0.00 0.00
9:53 am 09:53 Cloudy 35 1.7 30 -1.1 82 82 W 9 15 29.83 1010 10 16 0.00 0.00
10:31 am 10:31 Mostly Cloudy 36 2 28 -2 75 75 WSW 14 22 29.85 1011 10 16 0.00 0.00
10:38 am 10:38 Partly Cloudy 37 2.8 29 -1.7 73 73 WSW 13 20 29.85 1011 10 16 0.00 0.00
10:53 am 10:53 Mostly Sunny 39 3.9 29 -1.7 67 67 W 14 22 29.82 1010 10 16 0.00 0.00
11:53 am 11:53 Sunny 42 5.6 28 -2.2 58 58 W 12 19 29.79 1009 10 16 0.00 0.00
12:53 pm 12:53 Sunny 48 8.9 26 -3.3 42 42 WNW 17 28 29.77 1008 10 16 0.00 0.00
1:53 pm 13:53 Sunny 47 8.3 18 -7.8 31 31 NW 17 28 29.80 1009 10 16 0.00 0.00
2:53 pm 14:53 Sunny 49 9.4 21 -6.1 33 33 NNW 21 33 29.83 1010 10 16 0.00 0.00
3:53 pm 15:53 Sunny 48 8.9 16 -8.9 28 28 NNW 14 22 29.86 1011 10 16 0.00 0.00
4:53 pm 16:53 Sunny 40 4.4 17 -8.3 40 40 NW 8 13 29.89 1012 10 16 0.00 0.00
5:53 pm 17:53 Clear 28 -2.2 15 -9.4 58 58 NW 5 7 29.93 1013 10 16 0.00 0.00
6:53 pm 18:53 Clear 18 -7.8 10 -12.2 71 71 NNW 3 6 29.98 1015 10 16 0.00 0.00
7:53 pm 19:53 Clear 18 -7.8 9 -12.8 68 68 Calm 30.01 1016 10 16 0.00 0.00
8:53 pm 20:53 Clear 13 -10.6 7 -13.9 77 77 NW 6 9 30.04 1017 10 16 0.00 0.00
9:53 pm 21:53 Clear 13 -10.6 7 -13.9 77 77 WNW 3 6 30.05 1018 10 16 0.00 0.00
10:53 pm 22:53 Clear 9 -12.8 4 -15.6 80 80 W 5 7 30.06 1018 10 16 0.00 0.00
11:53 pm 23:53 Clear 9 -12.8 4 -15.6 80 80 WNW 7 11 30.06 1018 10 16 0.00 0.00

Powered by AerisWeather